Archiv

Tageswerte

Alle gespeicherten Messwerte deiner Wetterstation.

Ausgewählter Tag13.01.2024
← Vortag Nächster Tag → Heute
Messpunkte288
Max Temperatur0,6 °C
Min Temperatur-1,0 °C
Ø Temperatur-0,3 °C
Regen0,0 mm
Stärkste Böe20,1 km/h

Messwerte vom 13.01.2024

288 gespeicherte Messwerte

Diagramm anzeigen
ZeitTemperaturFeuchteDruckWindBöeRichtungRegenUVHelligkeit
23:590,6 °C86 %1.002,0 hPa6,0 km/h14,3 km/h285°0,0 mm
23:540,6 °C86 %1.002,0 hPa6,0 km/h14,3 km/h296°0,0 mm
23:490,6 °C85 %1.002,0 hPa6,9 km/h12,9 km/h298°0,0 mm
23:440,6 °C85 %1.002,0 hPa6,7 km/h11,4 km/h271°0,0 mm
23:390,6 °C86 %1.002,0 hPa6,7 km/h15,0 km/h262°0,0 mm
23:340,5 °C86 %1.002,0 hPa7,6 km/h11,1 km/h256°0,0 mm
23:290,5 °C86 %1.002,0 hPa6,6 km/h12,6 km/h262°0,0 mm
23:240,5 °C86 %1.002,0 hPa6,7 km/h14,3 km/h270°0,0 mm
23:190,4 °C86 %1.002,0 hPa8,7 km/h16,9 km/h228°0,0 mm
23:140,4 °C87 %1.002,0 hPa7,7 km/h13,7 km/h294°0,0 mm
23:090,4 °C87 %1.002,0 hPa5,9 km/h11,4 km/h281°0,0 mm
23:040,4 °C87 %1.002,0 hPa5,6 km/h9,3 km/h274°0,0 mm
22:590,4 °C88 %1.002,0 hPa7,0 km/h12,9 km/h270°0,0 mm
22:540,4 °C87 %1.002,0 hPa7,0 km/h15,0 km/h232°0,0 mm
22:490,4 °C87 %1.002,0 hPa6,9 km/h14,3 km/h278°0,0 mm
22:440,3 °C87 %1.003,1 hPa5,7 km/h8,9 km/h282°0,0 mm
22:390,2 °C88 %1.003,1 hPa6,9 km/h15,8 km/h250°0,0 mm
22:340,1 °C89 %1.003,1 hPa6,7 km/h15,0 km/h248°0,0 mm
22:290,1 °C90 %1.003,1 hPa6,3 km/h15,0 km/h254°0,0 mm
22:240,1 °C90 %1.003,1 hPa5,7 km/h11,1 km/h216°0,0 mm
22:190,1 °C90 %1.003,1 hPa4,9 km/h9,7 km/h258°0,0 mm
22:140,1 °C90 %1.003,1 hPa4,4 km/h9,7 km/h247°0,0 mm
22:090,1 °C90 %1.003,1 hPa5,3 km/h8,5 km/h279°0,0 mm
22:040,0 °C90 %1.003,1 hPa4,2 km/h11,1 km/h270°0,0 mm
21:59-0,1 °C90 %1.003,1 hPa3,6 km/h8,9 km/h275°0,0 mm
21:54-0,1 °C91 %1.003,1 hPa5,2 km/h10,8 km/h242°0,0 mm
21:49-0,2 °C92 %1.003,1 hPa4,8 km/h8,9 km/h253°0,0 mm
21:44-0,2 °C92 %1.003,1 hPa5,0 km/h10,3 km/h234°0,0 mm
21:39-0,2 °C93 %1.003,1 hPa4,2 km/h9,7 km/h249°0,0 mm
21:34-0,2 °C93 %1.003,1 hPa4,2 km/h12,2 km/h279°0,0 mm
21:29-0,2 °C92 %1.004,1 hPa5,3 km/h10,3 km/h302°0,0 mm
21:24-0,1 °C92 %1.004,1 hPa6,5 km/h11,1 km/h282°0,0 mm
21:190,0 °C92 %1.004,1 hPa6,1 km/h10,8 km/h279°0,0 mm
21:140,1 °C90 %1.003,1 hPa5,8 km/h12,2 km/h239°0,0 mm
21:090,1 °C89 %1.003,1 hPa5,8 km/h11,4 km/h293°0,0 mm
21:040,1 °C88 %1.003,1 hPa8,4 km/h14,3 km/h264°0,0 mm
20:590,1 °C88 %1.004,1 hPa4,9 km/h8,9 km/h276°0,0 mm
20:540,1 °C88 %1.004,1 hPa6,6 km/h15,8 km/h239°0,0 mm
20:490,1 °C88 %1.004,1 hPa6,8 km/h10,8 km/h277°0,0 mm
20:440,1 °C88 %1.004,1 hPa6,5 km/h12,6 km/h278°0,0 mm
20:390,1 °C88 %1.004,1 hPa7,9 km/h14,3 km/h235°0,0 mm
20:340,0 °C88 %1.004,1 hPa5,6 km/h15,8 km/h225°0,0 mm
20:290,0 °C88 %1.004,1 hPa5,0 km/h11,4 km/h250°0,0 mm
20:240,0 °C88 %1.004,1 hPa9,5 km/h16,4 km/h253°0,0 mm
20:19-0,1 °C89 %1.004,1 hPa6,7 km/h19,8 km/h273°0,0 mm
20:14-0,1 °C89 %1.004,1 hPa6,0 km/h11,1 km/h256°0,0 mm
20:09-0,1 °C89 %1.004,1 hPa7,6 km/h19,0 km/h266°0,0 mm
20:04-0,2 °C89 %1.004,1 hPa9,4 km/h20,1 km/h325°0,0 mm
19:59-0,2 °C89 %1.004,1 hPa7,3 km/h19,3 km/h294°0,0 mm
19:54-0,2 °C90 %1.004,1 hPa7,4 km/h13,7 km/h255°0,0 mm
19:49-0,2 °C90 %1.004,1 hPa6,7 km/h15,0 km/h228°0,0 mm
19:44-0,1 °C89 %1.004,1 hPa7,9 km/h17,2 km/h269°0,0 mm
19:39-0,1 °C89 %1.004,1 hPa7,3 km/h15,8 km/h252°0,0 mm
19:34-0,1 °C89 %1.004,1 hPa7,1 km/h18,7 km/h257°0,0 mm
19:29-0,1 °C89 %1.005,1 hPa7,3 km/h16,4 km/h253°0,0 mm
19:24-0,1 °C89 %1.005,1 hPa9,0 km/h16,4 km/h246°0,0 mm
19:19-0,1 °C89 %1.005,1 hPa10,1 km/h15,8 km/h263°0,0 mm
19:14-0,1 °C89 %1.004,1 hPa6,9 km/h15,8 km/h236°0,0 mm
19:090,0 °C88 %1.004,1 hPa6,2 km/h11,1 km/h235°0,0 mm
19:040,0 °C88 %1.004,1 hPa6,4 km/h12,6 km/h216°0,0 mm
18:590,1 °C87 %1.005,1 hPa6,1 km/h15,8 km/h287°0,0 mm
18:540,1 °C86 %1.005,1 hPa8,0 km/h16,4 km/h283°0,0 mm
18:490,2 °C85 %1.005,1 hPa5,4 km/h10,8 km/h73°0,0 mm
18:440,2 °C84 %1.005,1 hPa7,7 km/h12,2 km/h250°0,0 mm
18:390,2 °C84 %1.005,1 hPa8,0 km/h16,4 km/h238°0,0 mm
18:340,2 °C83 %1.005,1 hPa8,4 km/h15,8 km/h294°0,0 mm
18:290,2 °C83 %1.005,1 hPa7,4 km/h19,0 km/h263°0,0 mm
18:240,1 °C83 %1.005,1 hPa8,7 km/h17,9 km/h231°0,0 mm
18:190,1 °C82 %1.005,1 hPa5,0 km/h15,8 km/h236°0,0 mm
18:140,1 °C82 %1.005,1 hPa5,0 km/h14,3 km/h306°0,0 mm
18:090,1 °C82 %1.005,1 hPa7,1 km/h15,0 km/h252°0,0 mm
18:040,0 °C82 %1.005,1 hPa5,2 km/h16,4 km/h241°0,0 mm
17:590,0 °C82 %1.005,1 hPa6,6 km/h11,1 km/h290°0,0 mm
17:540,0 °C82 %1.005,1 hPa8,0 km/h11,1 km/h255°0,0 mm
17:490,0 °C82 %1.005,1 hPa6,2 km/h13,7 km/h252°0,0 mm
17:440,0 °C82 %1.005,1 hPa7,4 km/h11,1 km/h259°0,0 mm
17:39-0,1 °C82 %1.005,1 hPa8,4 km/h14,3 km/h252°0,0 mm
17:34-0,2 °C83 %1.005,1 hPa7,8 km/h17,5 km/h249°0,0 mm
17:29-0,2 °C83 %1.006,1 hPa4,6 km/h11,4 km/h263°0,0 mm
17:24-0,2 °C83 %1.006,1 hPa7,1 km/h15,0 km/h253°0,0 mm
17:19-0,2 °C83 %1.006,1 hPa8,1 km/h15,0 km/h270°0,0 mm
17:14-0,3 °C83 %1.006,1 hPa7,8 km/h17,9 km/h258°0,0 mm
17:09-0,3 °C83 %1.006,1 hPa6,3 km/h11,4 km/h246°0,0 mm
17:04-0,3 °C83 %1.006,1 hPa5,0 km/h11,1 km/h274°0,0 mm
16:59-0,3 °C83 %1.006,1 hPa5,0 km/h10,8 km/h282°0,0 mm
16:54-0,3 °C83 %1.006,1 hPa7,1 km/h13,7 km/h245°0,0 mm
16:49-0,3 °C83 %1.006,1 hPa5,6 km/h12,2 km/h242°0,0 mm
16:44-0,2 °C83 %1.006,1 hPa6,0 km/h12,2 km/h279°0,0 mm
16:39-0,2 °C82 %1.006,1 hPa6,2 km/h13,7 km/h231°0,0 mm
16:34-0,2 °C83 %1.006,1 hPa5,8 km/h12,6 km/h232°0,0 mm
16:29-0,2 °C83 %1.006,1 hPa5,9 km/h10,8 km/h284°0,0 mm
16:24-0,2 °C83 %1.006,1 hPa5,7 km/h10,0 km/h264°0,0 mm
16:19-0,1 °C82 %1.006,1 hPa5,7 km/h11,1 km/h244°0,0 mm
16:14-0,1 °C82 %1.006,1 hPa6,4 km/h12,6 km/h265°0,0 mm
16:09-0,1 °C82 %1.006,1 hPa6,8 km/h14,3 km/h252°0,0 mm
16:04-0,2 °C82 %1.006,1 hPa6,7 km/h19,0 km/h297°0,0 mm
15:59-0,3 °C82 %1.006,8 hPa5,7 km/h12,2 km/h297°0,0 mm
15:54-0,3 °C83 %1.006,8 hPa9,2 km/h16,4 km/h228°0,0 mm
15:49-0,3 °C83 %1.006,8 hPa4,7 km/h11,1 km/h282°0,0 mm
15:44-0,3 °C83 %1.006,8 hPa7,1 km/h17,2 km/h265°0,0 mm
15:39-0,3 °C83 %1.006,8 hPa7,0 km/h12,6 km/h282°0,0 mm
15:34-0,3 °C82 %1.006,8 hPa5,0 km/h12,2 km/h280°0,0 mm
15:29-0,3 °C82 %1.006,8 hPa8,5 km/h14,3 km/h255°0,0 mm
15:24-0,4 °C82 %1.006,8 hPa6,2 km/h10,8 km/h253°0,0 mm
15:19-0,4 °C81 %1.006,8 hPa6,4 km/h12,2 km/h241°0,0 mm
15:14-0,4 °C81 %1.006,8 hPa5,3 km/h11,1 km/h231°0,0 mm
15:09-0,4 °C81 %1.006,8 hPa7,8 km/h15,0 km/h257°0,0 mm
15:04-0,4 °C81 %1.006,8 hPa5,2 km/h11,1 km/h279°0,0 mm
14:59-0,4 °C82 %1.006,8 hPa6,2 km/h14,3 km/h218°0,0 mm
14:54-0,4 °C81 %1.006,8 hPa5,1 km/h17,2 km/h275°0,0 mm
14:49-0,4 °C81 %1.006,8 hPa7,1 km/h16,4 km/h268°0,0 mm
14:44-0,4 °C81 %1.007,8 hPa7,0 km/h16,4 km/h237°0,0 mm
14:39-0,4 °C81 %1.007,8 hPa5,6 km/h12,6 km/h238°0,0 mm
14:34-0,4 °C81 %1.007,8 hPa5,6 km/h9,3 km/h221°0,0 mm
14:29-0,4 °C81 %1.007,8 hPa6,3 km/h14,3 km/h242°0,0 mm
14:24-0,4 °C81 %1.007,8 hPa3,3 km/h8,5 km/h36°0,0 mm
14:19-0,4 °C81 %1.007,8 hPa5,9 km/h13,7 km/h260°0,0 mm
14:14-0,4 °C81 %1.007,8 hPa5,3 km/h12,6 km/h249°0,0 mm
14:09-0,3 °C81 %1.007,8 hPa5,8 km/h12,6 km/h259°0,0 mm
14:04-0,3 °C81 %1.007,8 hPa5,1 km/h9,7 km/h274°0,0 mm
13:59-0,3 °C81 %1.008,8 hPa5,4 km/h10,8 km/h286°0,0 mm
13:54-0,3 °C81 %1.008,8 hPa4,8 km/h8,9 km/h302°0,0 mm
13:49-0,3 °C81 %1.008,8 hPa5,5 km/h19,0 km/h207°0,0 mm
13:44-0,3 °C80 %1.008,8 hPa6,9 km/h10,3 km/h280°0,0 mm
13:39-0,3 °C81 %1.008,8 hPa5,2 km/h11,1 km/h295°0,0 mm
13:34-0,3 °C80 %1.008,8 hPa5,5 km/h12,6 km/h284°0,0 mm
13:29-0,3 °C80 %1.008,8 hPa6,7 km/h12,2 km/h308°0,0 mm
13:24-0,3 °C81 %1.008,8 hPa8,1 km/h15,0 km/h297°0,0 mm
13:19-0,3 °C81 %1.008,8 hPa4,8 km/h15,0 km/h12°0,0 mm
13:14-0,3 °C81 %1.008,8 hPa6,7 km/h12,2 km/h277°0,0 mm
13:09-0,3 °C81 %1.008,8 hPa5,9 km/h18,3 km/h297°0,0 mm
13:04-0,3 °C80 %1.008,8 hPa7,5 km/h16,4 km/h265°0,0 mm
12:59-0,2 °C81 %1.008,8 hPa6,0 km/h12,6 km/h273°0,0 mm
12:54-0,2 °C80 %1.008,8 hPa10,0 km/h18,7 km/h312°0,0 mm
12:49-0,2 °C80 %1.008,8 hPa8,3 km/h17,9 km/h279°0,0 mm
12:44-0,2 °C80 %1.008,8 hPa8,4 km/h17,2 km/h283°0,0 mm
12:39-0,1 °C80 %1.008,8 hPa7,1 km/h15,8 km/h259°0,0 mm
12:34-0,1 °C80 %1.008,8 hPa7,8 km/h16,9 km/h292°0,0 mm
12:29-0,1 °C80 %1.008,8 hPa7,7 km/h11,4 km/h278°0,0 mm
12:240,0 °C80 %1.008,8 hPa8,5 km/h20,1 km/h303°0,0 mm
12:190,0 °C80 %1.008,8 hPa7,6 km/h15,0 km/h293°0,0 mm
12:140,0 °C80 %1.009,8 hPa8,5 km/h15,8 km/h260°0,0 mm
12:090,0 °C81 %1.009,8 hPa5,9 km/h17,5 km/h295°0,0 mm
12:040,0 °C81 %1.009,8 hPa6,3 km/h12,2 km/h297°0,0 mm
11:590,0 °C81 %1.009,8 hPa7,6 km/h11,4 km/h273°0,0 mm
11:540,0 °C82 %1.009,8 hPa6,6 km/h13,7 km/h296°0,0 mm
11:490,0 °C82 %1.009,8 hPa6,5 km/h11,1 km/h284°0,0 mm
11:440,0 °C82 %1.009,8 hPa5,3 km/h11,4 km/h288°0,0 mm
11:390,0 °C82 %1.009,8 hPa5,6 km/h11,1 km/h255°0,0 mm
11:340,0 °C82 %1.009,8 hPa6,4 km/h11,4 km/h280°0,0 mm
11:290,0 °C82 %1.009,8 hPa7,3 km/h12,6 km/h278°0,0 mm
11:240,0 °C82 %1.009,8 hPa6,5 km/h11,1 km/h290°0,0 mm
11:190,0 °C83 %1.009,8 hPa4,9 km/h12,6 km/h274°0,0 mm
11:140,0 °C83 %1.009,8 hPa4,3 km/h9,3 km/h356°0,0 mm
11:090,0 °C83 %1.009,8 hPa4,2 km/h10,0 km/h293°0,0 mm
11:040,0 °C83 %1.009,8 hPa5,7 km/h15,0 km/h250°0,0 mm
10:590,0 °C83 %1.009,8 hPa6,0 km/h10,3 km/h314°0,0 mm
10:540,0 °C82 %1.009,8 hPa7,1 km/h13,2 km/h286°0,0 mm
10:490,0 °C83 %1.009,8 hPa4,4 km/h8,9 km/h262°0,0 mm
10:440,0 °C82 %1.009,8 hPa7,4 km/h17,2 km/h279°0,0 mm
10:390,0 °C83 %1.009,8 hPa5,2 km/h9,7 km/h267°0,0 mm
10:34-0,1 °C83 %1.009,8 hPa5,4 km/h15,0 km/h304°0,0 mm
10:29-0,1 °C83 %1.009,8 hPa6,6 km/h12,2 km/h290°0,0 mm
10:24-0,1 °C84 %1.009,8 hPa5,7 km/h11,1 km/h269°0,0 mm
10:19-0,1 °C84 %1.009,8 hPa4,9 km/h12,9 km/h30°0,0 mm
10:14-0,1 °C84 %1.010,8 hPa5,4 km/h11,4 km/h293°0,0 mm
10:09-0,1 °C84 %1.010,8 hPa6,6 km/h15,8 km/h284°0,0 mm
10:04-0,1 °C84 %1.010,8 hPa6,5 km/h10,3 km/h261°0,0 mm
09:59-0,1 °C84 %1.010,8 hPa6,9 km/h12,6 km/h269°0,0 mm
09:54-0,1 °C85 %1.010,8 hPa5,9 km/h10,8 km/h99°0,0 mm
09:49-0,1 °C85 %1.010,8 hPa5,3 km/h10,8 km/h292°0,0 mm
09:44-0,1 °C85 %1.010,8 hPa4,4 km/h8,9 km/h286°0,0 mm
09:39-0,1 °C85 %1.010,8 hPa6,7 km/h15,0 km/h300°0,0 mm
09:34-0,1 °C85 %1.010,8 hPa5,5 km/h10,3 km/h308°0,0 mm
09:29-0,1 °C85 %1.010,8 hPa4,2 km/h9,7 km/h302°0,0 mm
09:24-0,1 °C86 %1.010,8 hPa5,5 km/h11,1 km/h293°0,0 mm
09:19-0,1 °C86 %1.010,8 hPa5,5 km/h11,4 km/h276°0,0 mm
09:14-0,1 °C86 %1.010,8 hPa4,5 km/h8,9 km/h292°0,0 mm
09:09-0,2 °C86 %1.010,8 hPa5,3 km/h12,2 km/h293°0,0 mm
09:04-0,2 °C86 %1.010,8 hPa4,2 km/h11,1 km/h280°0,0 mm
08:59-0,2 °C86 %1.011,9 hPa5,3 km/h12,9 km/h299°0,0 mm
08:54-0,2 °C86 %1.011,9 hPa5,2 km/h11,4 km/h275°0,0 mm
08:49-0,2 °C86 %1.011,9 hPa4,2 km/h10,3 km/h286°0,0 mm
08:44-0,2 °C87 %1.011,9 hPa4,4 km/h10,8 km/h278°0,0 mm
08:39-0,3 °C87 %1.011,9 hPa5,3 km/h12,6 km/h258°0,0 mm
08:34-0,3 °C87 %1.011,9 hPa3,3 km/h12,2 km/h297°0,0 mm
08:29-0,3 °C88 %1.011,9 hPa2,7 km/h6,8 km/h281°0,0 mm
08:24-0,3 °C88 %1.011,9 hPa4,1 km/h9,7 km/h314°0,0 mm
08:19-0,3 °C88 %1.011,9 hPa3,9 km/h7,9 km/h305°0,0 mm
08:14-0,3 °C88 %1.011,9 hPa4,0 km/h9,3 km/h280°0,0 mm
08:09-0,4 °C88 %1.011,9 hPa5,7 km/h10,0 km/h274°0,0 mm
08:04-0,4 °C88 %1.011,9 hPa4,0 km/h7,9 km/h256°0,0 mm
07:59-0,4 °C88 %1.011,9 hPa3,8 km/h9,7 km/h305°0,0 mm
07:54-0,4 °C89 %1.011,9 hPa4,1 km/h11,4 km/h280°0,0 mm
07:49-0,4 °C89 %1.011,9 hPa4,6 km/h11,1 km/h326°0,0 mm
07:44-0,4 °C89 %1.011,9 hPa3,6 km/h8,5 km/h289°0,0 mm
07:39-0,4 °C89 %1.011,9 hPa4,5 km/h9,3 km/h271°0,0 mm
07:34-0,4 °C89 %1.011,9 hPa4,3 km/h8,9 km/h298°0,0 mm
07:29-0,4 °C89 %1.011,9 hPa2,8 km/h6,8 km/h251°0,0 mm
07:24-0,4 °C89 %1.011,9 hPa2,8 km/h9,7 km/h255°0,0 mm
07:19-0,4 °C89 %1.011,9 hPa4,1 km/h11,1 km/h265°0,0 mm
07:14-0,4 °C89 %1.012,9 hPa4,2 km/h9,3 km/h279°0,0 mm
07:09-0,4 °C90 %1.012,9 hPa4,4 km/h8,5 km/h286°0,0 mm
07:04-0,4 °C90 %1.012,9 hPa4,4 km/h8,5 km/h281°0,0 mm
06:59-0,4 °C90 %1.011,9 hPa3,8 km/h9,7 km/h299°0,0 mm
06:54-0,4 °C90 %1.011,9 hPa3,9 km/h8,5 km/h290°0,0 mm
06:49-0,5 °C90 %1.011,9 hPa4,7 km/h8,9 km/h256°0,0 mm
06:44-0,5 °C90 %1.011,9 hPa3,1 km/h7,9 km/h294°0,0 mm
06:39-0,5 °C90 %1.011,9 hPa5,0 km/h10,8 km/h278°0,0 mm
06:34-0,6 °C90 %1.011,9 hPa4,6 km/h12,2 km/h245°0,0 mm
06:29-0,6 °C91 %1.012,9 hPa3,5 km/h9,3 km/h273°0,0 mm
06:24-0,6 °C91 %1.012,9 hPa3,9 km/h11,1 km/h222°0,0 mm
06:19-0,6 °C91 %1.012,9 hPa6,0 km/h11,4 km/h265°0,0 mm
06:14-0,6 °C91 %1.012,9 hPa5,0 km/h9,3 km/h242°0,0 mm
06:09-0,6 °C91 %1.012,9 hPa4,9 km/h10,3 km/h264°0,0 mm
06:04-0,5 °C91 %1.012,9 hPa5,6 km/h15,8 km/h259°0,0 mm
05:59-0,5 °C91 %1.012,9 hPa4,2 km/h8,9 km/h272°0,0 mm
05:54-0,5 °C91 %1.012,9 hPa5,9 km/h9,7 km/h241°0,0 mm
05:49-0,5 °C91 %1.012,9 hPa4,4 km/h7,4 km/h286°0,0 mm
05:44-0,5 °C91 %1.012,9 hPa6,5 km/h10,3 km/h243°0,0 mm
05:39-0,6 °C91 %1.012,9 hPa5,5 km/h9,3 km/h288°0,0 mm
05:34-0,6 °C91 %1.012,9 hPa5,1 km/h11,1 km/h269°0,0 mm
05:29-0,6 °C91 %1.012,9 hPa4,4 km/h10,3 km/h265°0,0 mm
05:24-0,6 °C91 %1.012,9 hPa6,8 km/h13,7 km/h274°0,0 mm
05:19-0,6 °C91 %1.012,9 hPa4,2 km/h7,4 km/h278°0,0 mm
05:14-0,6 °C91 %1.012,9 hPa5,0 km/h11,1 km/h285°0,0 mm
05:09-0,6 °C91 %1.012,9 hPa5,0 km/h12,6 km/h266°0,0 mm
05:04-0,6 °C91 %1.012,9 hPa5,2 km/h10,8 km/h290°0,0 mm
04:59-0,6 °C91 %1.013,9 hPa5,7 km/h11,1 km/h256°0,0 mm
04:54-0,6 °C91 %1.013,9 hPa4,9 km/h11,1 km/h270°0,0 mm
04:49-0,6 °C91 %1.013,9 hPa3,8 km/h9,7 km/h293°0,0 mm
04:44-0,6 °C91 %1.013,9 hPa3,0 km/h6,8 km/h274°0,0 mm
04:39-0,6 °C91 %1.013,9 hPa4,6 km/h8,9 km/h277°0,0 mm
04:34-0,6 °C91 %1.013,9 hPa4,6 km/h9,7 km/h285°0,0 mm
04:29-0,7 °C91 %1.013,9 hPa3,9 km/h8,5 km/h264°0,0 mm
04:24-0,7 °C91 %1.013,9 hPa7,6 km/h12,2 km/h265°0,0 mm
04:19-0,7 °C91 %1.013,9 hPa3,6 km/h7,9 km/h43°0,0 mm
04:14-0,7 °C92 %1.013,9 hPa4,3 km/h10,3 km/h271°0,0 mm
04:09-0,7 °C92 %1.013,9 hPa3,5 km/h7,4 km/h272°0,0 mm
04:04-0,7 °C92 %1.013,9 hPa4,2 km/h10,3 km/h289°0,0 mm
03:59-0,7 °C92 %1.013,9 hPa3,6 km/h8,5 km/h286°0,0 mm
03:54-0,7 °C91 %1.013,9 hPa4,7 km/h9,3 km/h265°0,0 mm
03:49-0,7 °C91 %1.013,9 hPa5,2 km/h11,4 km/h280°0,0 mm
03:44-0,7 °C91 %1.013,9 hPa4,3 km/h8,9 km/h274°0,0 mm
03:39-0,7 °C91 %1.013,9 hPa2,9 km/h9,3 km/h315°0,0 mm
03:34-0,7 °C91 %1.013,9 hPa3,1 km/h6,8 km/h288°0,0 mm
03:29-0,8 °C91 %1.013,9 hPa4,2 km/h8,9 km/h292°0,0 mm
03:24-0,8 °C91 %1.013,9 hPa4,0 km/h10,3 km/h269°0,0 mm
03:19-0,8 °C91 %1.013,9 hPa4,0 km/h10,3 km/h251°0,0 mm
03:14-0,8 °C92 %1.013,9 hPa3,7 km/h8,5 km/h294°0,0 mm
03:09-0,8 °C92 %1.013,9 hPa3,9 km/h8,5 km/h283°0,0 mm
03:04-0,8 °C92 %1.013,9 hPa4,5 km/h9,7 km/h276°0,0 mm
02:59-0,8 °C91 %1.014,9 hPa6,3 km/h11,4 km/h261°0,0 mm
02:54-0,8 °C91 %1.014,9 hPa4,0 km/h11,4 km/h329°0,0 mm
02:49-0,8 °C91 %1.014,9 hPa4,5 km/h9,7 km/h307°0,0 mm
02:44-0,8 °C91 %1.014,9 hPa5,2 km/h10,3 km/h286°0,0 mm
02:39-0,8 °C91 %1.014,9 hPa3,7 km/h8,5 km/h284°0,0 mm
02:34-0,8 °C91 %1.014,9 hPa5,6 km/h15,0 km/h290°0,0 mm
02:29-0,9 °C91 %1.014,9 hPa3,0 km/h7,4 km/h292°0,0 mm
02:24-0,9 °C91 %1.014,9 hPa3,7 km/h8,5 km/h290°0,0 mm
02:19-0,9 °C91 %1.014,9 hPa4,0 km/h9,7 km/h282°0,0 mm
02:14-0,9 °C91 %1.014,9 hPa3,4 km/h8,5 km/h324°0,0 mm
02:09-0,9 °C91 %1.014,9 hPa6,1 km/h9,7 km/h293°0,0 mm
02:04-0,9 °C92 %1.014,9 hPa3,9 km/h8,9 km/h295°0,0 mm
01:59-0,9 °C91 %1.014,9 hPa4,7 km/h10,8 km/h266°0,0 mm
01:54-0,9 °C91 %1.014,9 hPa4,1 km/h10,8 km/h287°0,0 mm
01:49-0,9 °C92 %1.014,9 hPa3,6 km/h8,9 km/h263°0,0 mm
01:44-0,9 °C92 %1.014,9 hPa3,4 km/h9,7 km/h343°0,0 mm
01:39-0,9 °C92 %1.014,9 hPa4,3 km/h8,5 km/h295°0,0 mm
01:34-0,9 °C92 %1.014,9 hPa4,0 km/h11,4 km/h266°0,0 mm
01:29-0,9 °C92 %1.014,9 hPa4,3 km/h9,3 km/h286°0,0 mm
01:24-0,9 °C92 %1.014,9 hPa4,3 km/h11,4 km/h305°0,0 mm
01:19-0,9 °C92 %1.014,9 hPa5,1 km/h11,4 km/h281°0,0 mm
01:14-0,9 °C92 %1.014,9 hPa4,1 km/h10,3 km/h281°0,0 mm
01:09-0,9 °C92 %1.014,9 hPa4,8 km/h8,9 km/h296°0,0 mm
01:04-0,9 °C92 %1.014,9 hPa6,0 km/h10,8 km/h277°0,0 mm
00:59-0,9 °C92 %1.014,9 hPa3,7 km/h8,5 km/h269°0,0 mm
00:54-0,9 °C92 %1.014,9 hPa4,8 km/h15,0 km/h280°0,0 mm
00:49-0,9 °C92 %1.014,9 hPa4,1 km/h9,3 km/h256°0,0 mm
00:44-1,0 °C92 %1.015,9 hPa4,5 km/h10,3 km/h256°0,0 mm
00:39-1,0 °C92 %1.015,9 hPa4,1 km/h8,5 km/h280°0,0 mm
00:34-1,0 °C92 %1.015,9 hPa4,5 km/h11,1 km/h263°0,0 mm
00:29-1,0 °C92 %1.015,9 hPa4,6 km/h9,3 km/h286°0,0 mm
00:24-1,0 °C93 %1.015,9 hPa3,6 km/h12,2 km/h274°0,0 mm
00:19-1,0 °C93 %1.015,9 hPa3,6 km/h9,3 km/h289°0,0 mm
00:14-1,0 °C93 %1.015,9 hPa5,6 km/h9,7 km/h273°0,0 mm
00:09-1,0 °C93 %1.015,9 hPa3,3 km/h12,6 km/h286°0,0 mm
00:04-0,9 °C93 %1.015,9 hPa3,7 km/h8,5 km/h273°0,0 mm